Flag Weather past 2 weeks in Northampton, England, United Kingdom

Now
46 °F

Passing clouds.


Feels Like: 44 °F
Forecast: N/A
Wind: 5 mph from Southeast

Location: Cranfield

Current Time: Nov 27, 2014 at 4:34:49 PM

Latest Report: Nov 27, 2014 at 4:20 PM


Visibility: N/A

Pressure: 29.56 "Hg

Humidity: 93%

Dew point: 45 °F

Location of NorthamptonLocation

Historic Weather in Northampton — Graph

°F

Northampton temperature yesterday

Maximum temperature yesterday: 46 °F (at 9:20 AM)
Minimum temperature yesterday: 45 °F (at 7:20 AM)
Average temperature yesterday: 46 °F

Past Weeks' High & Low Weather Summary

 TemperatureHumidityPressure
High64 °F (Nov 21, 12:20 PM)100% (Nov 14, 7:50 AM)30.33 "Hg (Nov 14, 7:50 AM)
Low30 °F (Nov 25, 7:50 AM)72% (Nov 14, 1:50 PM)29.42 "Hg (Nov 14, 7:50 AM)
Average47 °F94%29.84 "Hg
* Reported Nov 12 3:20 PM — Nov 27 3:20 PM, Northampton, Weather by CustomWeather, © 2014

Note: Actual official high and low records may vary slightly from our data, if they occured in-between our weather recording intervals... More about our weather records

Advertising

Northampton weather history for previous 24 hours

 ConditionsComfort  
Time TempWeatherWind HumidityBarometerVisibility
3:20 PM
Nov 27
48 °FPassing clouds.2 mph87%29.59 "HgN/A
2:50 PM48 °FPassing clouds.5 mph87%29.56 "HgN/A
2:20 PM50 °FPassing clouds.5 mph82%29.59 "HgN/A
1:50 PM48 °FPassing clouds.7 mph87%29.59 "HgN/A
1:20 PM48 °FScattered clouds.8 mph94%29.59 "HgN/A
12:50 PM48 °FScattered clouds.8 mph94%29.59 "HgN/A
12:20 PM50 °FScattered clouds.8 mph88%29.59 "HgN/A
11:50 AM48 °FScattered clouds.7 mph100%29.59 "Hg5 mi
11:20 AM48 °FScattered clouds.8 mph100%29.59 "Hg4 mi
10:50 AM46 °FFog.7 mph100%29.59 "Hg2 mi
10:20 AM46 °FFog.7 mph100%29.59 "Hg1 mi
9:50 AM46 °FFog.5 mph100%29.59 "Hg0 mi
9:20 AM46 °FFog.2 mph100%29.59 "Hg0 mi
8:50 AM46 °FFog.2 mph100%29.59 "Hg0 mi
8:20 AM46 °FFog.2 mph100%29.59 "Hg0 mi
7:50 AM46 °FFog.3 mph100%29.59 "Hg0 mi
5:50 PM
Nov 26
46 °FFog.2 mph100%29.80 "Hg0 mi
5:20 PM46 °FFog.2 mph100%29.80 "Hg1 mi
4:50 PM46 °FFog.2 mph100%29.80 "Hg1 mi
4:20 PM46 °FFog.2 mph100%29.80 "Hg1 mi
Weather by CustomWeather, © 2014

See weather overviewHow to use our weather pages